Terug naar catalogus

COSMOS 2251 DEB

ActiefLEO
NORAD 34965·DEBRIS·🇷🇺 Russia

Gelanceerd Jun 16, 1993 vanaf Plesetsk Cosmodrome

Loading…

Volgende Passages (komende 24 uur)

TLE

VersSource: Space-Track

Epoch: Sep 14, 2026, 04:41 UTC

1 34965U 93036AEU 26257.19575448  .00000498  00000-0  13735-3 0  9996
2 34965  74.0532 332.5268 0025208  26.1481 334.0945 14.49230044911031

Volg COSMOS 2251 DEB in realtime met AllMySat

Download on the App Store